Starlink 33690

operational
NORAD ID: 63406 Int'l Des: 2025-065 Owner: SPXS Country: US Constellation: starlink
LEOCIRCULAR

关于 Starlink 33690

正在加载描述...

实时位置

正在加载3D地球...

即将过境

高度历史

Altitude vs Time

uPlot chart will show altitude changes over time

两行轨道根数

1 63406U 25065H 25302.51092994 .00038939 00000-0 14160-2 0 9994
2 63406 43.0026 123.9491 0001108 266.6895 93.3830 15.27603916 32828
Epoch: Oct 29, 2025 • Age: 9 hours

当前状态

高度 485.6 km
速度 7.62 km/s
星下点 -15.53°S, 34.2°W
发射日期 Mar 31, 2025
运行时间 0.5 years
类型 internet

技术详情

分类 Payload
质量 575.00 kg
干质量 530.00 kg
总质量 575.00 kg
长度 0.30 m
直径 4.10 m
跨度 29.00 m
形状 Box + pan
制造商 SPXS
平台类型 Starlink V2MO
阶段状态 In Orbit
所有者/国家 SPXS/US

大型星座

Loading constellations...